Главная страница
METAR-TAF:

METAR-TAF

Аэропорты :

Aeroflex-Andover Airport

Andover, Нью-Джерси, США

широта: 41-00-32N, долгота: 074-44-12W, высота над уровнем моря: 177 м

Текущие метеонаблюдения

Эта сводка был подготовлена 7 минут назад, в 16:54 UTC
Ветер 4 Узел от юго-западный
Температура 1°C
Влажность 59%
Давление 1017 hPa

METAR: K12N 161654Z AUTO 22004KT 01/M06 A3004 RMK AO1 SLP185 T00061056 $

Время: 12:01 (17:01 UTC)


TAF: отсутствует

Метеонаблюдения и прогнозы для более 4000 аэропортов (сводки METAR и TAF).

Имеющиеся станции представлены на карте желтыми и красными точками.

Чтобы увидеть название станции, наведите на нее мышь.

Затем щелкните, чтобы увидеть метеонаблюдения и метеопрогнозы.

Управление картой: чтобы увеличить масштаб, щелкните зеленые кнопки с черным крестиком; чтобы уменьшить масштаб, щелкните зеленую кнопку с тире; для просмотра соседних карт щелкайте зеленые стрелки.


METAR-TAF: